Regional Weather Roundup
Issued by NWS State College, PA

Home | Current Version | Previous Version | Graphics & Text | Print | Product List | Glossary Off
Versions: 1 2 3 4 5 6 7 8 9 10 11 12 13 14 15 16 17 18 19 20 21 22 23 24 25 26 27 28 29 30 31 32 33 34 35 36 37 38 39 40 41 42 43 44 45 46 47 48 49 50

000
ASUS41 KCTP 070010
RWRCTP

REGIONAL WEATHER ROUNDUP
NATIONAL WEATHER SERVICE STATE COLLEGE PA
800 PM EDT WED MAY 06 2015

Note: "fair" indicates few or no clouds below 12,000 feet with no
significant weather and/or obstructions to visibility.

* = STATION THAT DOES NOT REPORT PRECIPITATION /E.G. RAIN...SNOW...ETC/
    THUNDER OR FOG.

PAZ002>004-007>009-013>016-020>023-029>032-070100-
WESTERN PENNSYLVANIA

CITY           SKY/WX    TMP DP  RH WIND       PRES   REMARKS
ERIE           CLEAR     64  54  69 NE6       30.17S
MEADVILLE      CLEAR     68  55  63 NW3       30.17S
FRANKLIN*      CLEAR     70  55  60 N6        30.19R
NEW CASTLE     FAIR      74  61  63 N7        30.16S
BEAVER COUNTY  LGT RAIN  66  61  82 NE6       30.15S
BUTLER*        PTCLDY    72  61  68 N3        30.17R
PITTSBURGH INT MOCLDY    77  57  50 N12       30.14R
PITTSBURGH     MOCLDY    76  53  44 VRB7      30.13R
INDIANA*       PTCLDY    68  63  83 E8        30.20S
LATROBE        PTCLDY    72  59  64 N8        30.16S
WASHINGTON CO* CLEAR     75  54  46 W3        30.15R
$$

PAZ004>006-010>012-017>019-024>028-033>037-041-042-045-046-049>053-070100-
CENTRAL PENNSYLVANIA

CITY           SKY/WX    TMP DP  RH WIND       PRES   REMARKS
BRADFORD       PTCLDY    59  54  83 E5        30.21F
DUBOIS         PTCLDY    65  56  72 E8        30.19S
CLEARFIELD     CLOUDY    61  56  83 E6        30.21S
JOHNSTOWN      MOCLDY    61  58  90 CALM      30.19S
ALTOONA        MOCLDY    64  59  83 E6        30.20R
STATE COLLEGE  CLOUDY    57  55  94 NE6       30.21S HAZE
WILLIAMSPORT   MOCLDY    60  55  83 CALM      30.22R
SELINSGROVE    CLOUDY    60  55  83 N3        30.23R
FT INDIANTOWN  CLOUDY    61  53  75 NE1       30.22S
CAPITAL CITY   RAIN      59  53  80 E8        30.20F
HARRISBURG     LGT RAIN  60  54  80 CALM      30.20R
YORK           MOCLDY    65  50  58 NE7       30.19R
$$

PAZ038>040-043-044-047-048-054-055-060>062-067>071-070100-
EASTERN PENNSYLVANIA

CITY           SKY/WX    TMP DP  RH WIND       PRES   REMARKS
SCRANTON       CLOUDY    65  48  54 SW5       30.22R
MOUNT POCONO   CLOUDY    59  47  64 CALM      30.24S
ALLENTOWN      CLOUDY    64  46  52 CALM      30.22F
QUAKERTOWN*    MOCLDY    63  46  55 CALM      30.23F
READING        CLOUDY    63  47  55 NE5       30.21F
LANCASTER      LGT RAIN  59  55  87 NE8       30.20S
COATESVILLE    LGT RAIN  64  46  52 NE3       30.22S
POTTSTOWN      CLOUDY    62  47  57 E3        30.23S
BLUE BELL      MOCLDY    63  50  63 CALM      30.21S
DOYLESTOWN     PTCLDY    60  48  64 CALM      30.21F
WILLOW GROVE   NOT AVBL
NORTH PHILA    MOCLDY    65  48  54 E7        30.23S
PHILADELPHIA   MOCLDY    67  47  48 E10       30.21R
$$



USA.gov is the U.S. government's official web portal to all federal, state and local government web resources and services.